Weather History for Meacham, OR

Change the Weather History Date:

Sunday, August 19, 2012

  Actual Average Record
Temperature  
Mean Temperature 66 °F -  
Max Temperature 87 °F 76 °F 87 °F (2006)
Min Temperature 44 °F 38 °F 28 °F (1996)
Growing Degree Days 16 (Base 50)    
Moisture  
Dew Point 44 °F    
Average Humidity 52    
Maximum Humidity 83    
Minimum Humidity 21    
Precipitation  
Precipitation 0.00 in - - ()
Sea Level Pressure  
Sea Level Pressure 29.96 in    
Wind  
Wind Speed 1 mph (West)    
Max Wind Speed 5 mph    
Max Gust Speed -    
Visibility 10 miles    
Events      
Averages and records for this station are not official NWS values.
T = Trace of Precipitation, MM = Missing Value Source: NWS Daily Summary

Daily Weather History Graph

Daily Weather History Graph

Search for Another Location

Airport:

Trip Planner

Search our weather history database for the weather conditions in past years. The results will help you decide how hot, cold, wet, or windy it might be!

Date:

Astronomy

Aug. 19, 2012 Rise Set
Actual Time 5:59 AM PDT 7:53 PM PDT
Civil Twilight 5:28 AM PDT 8:25 PM PDT
Nautical Twilight 4:49 AM PDT 9:04 PM PDT
Astronomical Twilight 4:06 AM PDT 9:46 PM PDT
Moon 8:30 AM PDT (8/19) 8:32 PM PDT (8/19)
Length of Visible Light 14h 57m
Length of Day
13h 53m
Waxing Crescent, 5% of the Moon is Illuminated
Aug 19
Waxing Crescent
Aug 24
First Quarter
Aug 31
Full
Sep 8
Last Quarter
Sep 15
New

Hourly Weather History & Observations

Time (PDT) Temp. Dew Point Humidity Pressure Visibility Wind Dir Wind Speed Gust Speed Precip Events Conditions
12:56 AM 53.1 °F 44.1 °F 71% 29.93 in 10.0 mi Calm Calm - N/A   Clear
1:56 AM 50.0 °F 42.1 °F 74% 29.94 in 10.0 mi Calm Calm - N/A   Clear
2:56 AM 48.0 °F 42.1 °F 80% 29.95 in 10.0 mi Calm Calm - N/A   Clear
3:56 AM 46.0 °F 41.0 °F 83% 29.96 in 10.0 mi Calm Calm - N/A   Clear
4:56 AM 45.0 °F 39.9 °F 82% 29.96 in 10.0 mi Calm Calm - N/A   Clear
5:56 AM 44.1 °F 39.0 °F 82% 29.97 in 10.0 mi Calm Calm - N/A   Clear
6:56 AM 46.0 °F 39.9 °F 79% 29.97 in 10.0 mi Calm Calm - N/A   Clear
7:56 AM 55.0 °F 43.0 °F 64% 29.98 in 10.0 mi Calm Calm - N/A   Clear
8:56 AM 68.0 °F 46.9 °F 47% 29.95 in 10.0 mi Calm Calm - N/A   Clear
9:56 AM 75.0 °F 44.1 °F 33% 29.96 in 10.0 mi Variable 3.5 mph - N/A   Clear
10:56 AM 77.0 °F 44.1 °F 31% 29.97 in 10.0 mi Calm Calm - N/A   Clear
11:56 AM 82.9 °F 43.0 °F 24% 29.95 in 10.0 mi WSW 3.5 mph - N/A   Clear
12:56 PM 86.0 °F 42.1 °F 21% 29.93 in 10.0 mi Variable 3.5 mph - N/A   Clear
1:56 PM 84.9 °F 44.1 °F 24% 29.92 in 10.0 mi Variable 4.6 mph - N/A   Clear
2:56 PM 87.1 °F 46.0 °F 24% 29.91 in 10.0 mi Variable 4.6 mph - N/A   Clear
3:56 PM 84.0 °F 46.0 °F 26% 29.93 in 10.0 mi West 4.6 mph - N/A   Clear
4:56 PM 84.0 °F 46.0 °F 26% 29.93 in 10.0 mi Calm Calm - N/A   Clear
5:56 PM 80.1 °F 48.0 °F 32% 29.97 in 10.0 mi Calm Calm - N/A   Scattered Clouds
6:56 PM 77.0 °F 46.0 °F 33% 29.97 in 10.0 mi Calm Calm - N/A   Clear
7:56 PM 72.0 °F 46.9 °F 41% 29.96 in 10.0 mi Calm Calm - N/A   Clear
8:56 PM 66.2 °F 48.2 °F 52% 30.04 in 10.0 mi Calm Calm - N/A   Clear
9:56 PM 61.0 °F 48.9 °F 64% 29.97 in 10.0 mi Calm Calm - N/A   Clear
10:56 PM 57.0 °F 48.0 °F 72% 29.98 in 10.0 mi Calm Calm - N/A   Clear
11:56 PM 54.0 °F 46.9 °F 77% 29.99 in 10.0 mi Calm Calm - N/A   Clear